COSMOS 2251 DEB, 35840

Orbit data source: Space-Track

COSMOS 2251 DEB, 35840 is space debris in LEO originally from a launch on Wed, 16 Jun 1993 UTC launched from the Plesetsk Missile And Space Complex (PKMTR). The debris from Iridium 33, an American commercial communications satellite, has been tracked extensively since its accidental collision with the defunct Russian satellite Cosmos 2251 in 2009. This event, occurring at high speed in low Earth orbit (LEO), generated thousands of pieces of space debris, significantly increasing the risk of further collisions. The Iridium 33 debris cloud has impacted space traffic management and orbital debris mitigation strategies, making it a subject of ongoing study in space situational awareness.

Loading next visibility...
Identifier
35840, 1993-036ATN
Orbit
LEO
Country
Flag of CISCIS
Related business
Manufacturer
Unknown
Mission
Spacecraft
Bus & Motor
Unknown
Mass
Unknown
Launch date (UTC)
1993-06-16 (33 years ago)
Launch vehicle
Unknown
Launch site
Plesetsk Missile And Space Complex (PKMTR)
Object type
Payload
Rocket body
Debris
Shape & HBR
Unknown shape, 0.1 m
Radar Cross Section
Small (<0.1 m²)

Expand to show TLE details & history
Last TLE update: 1 week ago

TLE from 1 week ago
0 COSMOS 2251 DEB
1 35840U 93036ATN 26027.37668029  .00008345  00000-0  25307-2 0  9998
2 35840  73.9310  73.5565 0118375 324.7528  34.5836 14.38353389859471
Epoch: 2026-01-27T09:02Z
TLE epoch observation values (Epoch: 2026-01-27T09:02:25.177Z)
Latitude
0.00002°
Longitude
171.29264°
Altitude
697.263 km
Speed
7.544 km/s
True Right ascension
04h 54m 13s
True Declination
0° 00' 00"
Sunlit
Object was in full shadow at epoch
Visualization orbit readout
Latitude
Unknown
Longitude
Unknown
Altitude
Unknown
Speed
Unknown
Apparent Right ascension
Unknown
Apparent Declination
Unknown
Sunlit
N/A
Visualization observer readout
Local Sidereal Time
04:15:16
Azimuth
Unknown
Elevation
Unknown
Doppler factor
Unknown
Orbital elements
Apogee altitude
846.09 km
Perigee altitude
677.058 km
Semi-major axis
7,139.711 km
Eccentricity
0.01184
Inclination
73.931°
RAAN
73.5565°
Arg. of periapsis
324.7528°
True anomaly
35.36301°
Mean anomaly
34.5836°
Eccentric anomaly
34.97235°
Mean motion
3.59768 °/min
Orbital period
100.06 mins
BSTAR
0.0025307
Loading maneuver chart data...
Computing Atmospheric mass density...

Documentation

Showing up to 5 results
|